Regional Weather Roundup
Issued by NWS

Home | Current Version | Previous Version | Graphics & Text | Print | Product List | Glossary On
Versions: 1 2 3 4 5 6 7 8 9 10 11 12 13 14 15 16 17 18 19 20 21 22 23 24 25 26 27 28 29 30 31 32 33 34 35 36 37 38 39 40 41 42 43 44 45 46 47 48 49 50
000
ASUS43 KLOT 251810
RWRIL

ILLINOIS REGIONAL WEATHER ROUNDUP
NATIONAL WEATHER SERVICE CHICAGO/ROMEOVILLE IL
1200 PM CST SUN JAN 25 2015

NOTE: "FAIR" INDICATES FEW OR NO CLOUDS BELOW 12,000 FEET WITH NO
SIGNIFICANT WEATHER AND/OR OBSTRUCTIONS TO VISIBILITY.

* THESE STATIONS ARE NOT UNDER NWS QUALITY CONTROL. THEY ALSO MAY NOT
  REPORT WEATHER SUCH AS PRECIPITATION OR FOG.

ILZ001-002-007-009-015-016-024-251900-
NORTHWEST ILLINOIS

CITY           SKY/WX    TMP DP  RH WIND       PRES   REMARKS
MOLINE         LGT SNOW  30  27  88 NE14G21   29.80R FOG     WCI  19
6HR MIN TEMP:  30; 6HR MAX TEMP:  34; 6HR PCP:  0.15;

STERLING*      CLOUDY    28  23  80 NE21G29   29.80S WCI  15
SAVANNA*       LGT SNOW  31  25  77 NE17G26   29.85R WCI  20
$$

ILZ003-004-008-010-011-017-018-251900-
NORTH CENTRAL ILLINOIS

CITY           SKY/WX    TMP DP  RH WIND       PRES   REMARKS
ROCKFORD       CLOUDY    28  19  69 NE21G30   29.86S WCI  15
6HR MIN TEMP:  27; 6HR MAX TEMP:  31; 6HR PCP:  0.03;

FREEPORT*      PTSUNNY   29  21  74 NE22G29   29.87R WCI  15
ROCHELLE*      CLOUDY    27  23  83 NE29G35   29.81S WCI  11
DE KALB*       MIX PCPN  27  23  87 NE23G29   29.80S WCI  12
PERU*          LGT SNOW  32  30  93 NE24      29.77R WCI  19
$$

ILZ005-006-012>014-019>023-251900-
NORTHEAST ILLINOIS

CITY           SKY/WX    TMP DP  RH WIND       PRES   REMARKS
CHICAGO-OHARE  LGT SNOW  30  26  85 NE17G32   29.80R FOG     WCI  18
6HR MIN TEMP:  30; 6HR MAX TEMP:  33; 6HR PCP:  0.07;

CHICAGO-MIDWAY LGT SNOW  33  30  88 NE18G24   29.79R FOG     WCI  22
6HR MIN TEMP:  33; 6HR MAX TEMP:  38; 6HR PCP:  0.06;

AURORA         LGT SNOW  32  27  81 NE22      29.78S WCI  19
6HR MIN TEMP:  32; 6HR MAX TEMP:  33; 6HR PCP:  0.01;

LANSING*       LGT SNOW  32  32  99 NE14      29.76S WCI  22
JOLIET*        LGT SNOW  33  31  94 NE15G24   29.76S WCI  22
WAUKEGAN       CLOUDY    28  19  69 N13G31    29.85R WCI  17
6HR MIN TEMP:  28; 6HR MAX TEMP:  29; 6HR PCP: TRACE;

DUPAGE AIRPORT LGT SNOW  30  26  85 NE24      29.79R FOG     WCI  16
6HR MIN TEMP:  30; 6HR MAX TEMP:  33; 6HR PCP: TRACE;

KANKAKEE*      LGT RAIN  33  33  98 NE9G16    29.72S WCI  25
WHEELING       LGT SNOW  29  24  82 N16G25    29.84R WCI  17
6HR MIN TEMP:  29; 6HR MAX TEMP:  33; 6HR PCP: TRACE;

MORRIS*        LGT SNOW  33  33  98 NE7       29.75R WCI  27
ROMEOVILLE*    LGT RAIN  32  31  96 NE17G23   29.76S WCI  21
NORTHERLY ISL    N/A     30  29  96 N24         N/A  WCI  16
$$

LMZ740>746-251900-
SOUTHERN LAKE MICHIGAN

STATION/POSITION SKY/WX   TEMP    WIND        PRES    VSBY  WAVE
                          AIR SEA DIR/SP/G                  HT/PER
                          (F)     (DEG/KT/KT) (MB)    (MI)  (FT/S)
WAUKEGAN HARBOR            29      30/ 25/ 34   N/A
HARRISON CRIB              30      30/ 26/ 30   N/A
BURNHAM HARBOR             30      30/ 20/ 23   N/A
CALUMET HARBOR             31      20/ 17/ 27   N/A
MICHIGAN CITY              30      30/ 18/ 21   N/A
$$

ILZ025>027-034>036-040-047-049-050-058-095>099-251900-
WEST-CENTRAL ILLINOIS

CITY           SKY/WX    TMP DP  RH WIND       PRES   REMARKS
QUINCY         CLOUDY    37  34  89 NE20G25   29.66R FOG     WCI  27
GALESBURG*     LGT SNOW  31  29  94 NE22G31   29.74R WCI  18
MACOMB*        LGT RAIN  33  33  99 NE22      29.73R WCI  21
JACKSONVILLE*  CLOUDY    40  37  89 NE15      29.64R
PITTSFIELD*    DRIZZLE   40  38  93 NE12G17   29.64R
$$

ILZ028>032-037-038-041>044-048-051>054-059>061-251900-
CENTRAL ILLINOIS

CITY           SKY/WX    TMP DP  RH WIND       PRES   REMARKS
PONTIAC        LGT SNOW  34  34  98 NE18G24   29.71R WCI  23
BLOOMINGTON    LGT SNOW  33  33 100 NE18      29.67S FOG     WCI  22
DECATUR        CLOUDY    38  35  89 NE12      29.62F WCI  30
PEORIA         LGT SNOW  35  32  88 NE10G21   29.70R FOG     WCI  27
6HR MIN TEMP:  35; 6HR MAX TEMP:  37; 6HR PCP:  0.12;

LACON*         LGT SNOW  32  31  95 NE12G21   29.73R WCI  23
LINCOLN*       CLOUDY    37  36  95 NE16      29.66R WCI  27
SPRINGFIELD    CLOUDY    39  35  86 NE13      29.64R WCI  31
6HR MIN TEMP:  39; 6HR MAX TEMP:  42; 6HR PCP:  0.13;

TAYLORVILLE    CLOUDY    37  36  93 NE12      29.61S WCI  30
$$

ILZ033-039-045-046-055>057-062-063-251900-
EAST-CENTRAL ILLINOIS

CITY           SKY/WX    TMP DP  RH WIND       PRES   REMARKS
CHAMPAIGN      LGT RAIN  38  36  92 NE13      29.62F FOG     WCI  30
DANVILLE*      RAIN      35  35  97 NE7       29.62F WCI  30
RANTOUL*       LGT RAIN  36  35  96 NE13      29.65S WCI  28
MATTOON        CLOUDY    39  39 100 SE3       29.59F FOG
PARIS*         DRIZZLE   38  38  98 CALM      29.62F
$$

ILZ079-100>102-251900-
SOUTHWEST ILLINOIS

CITY           SKY/WX    TMP DP  RH WIND       PRES   REMARKS
ALTON          DRIZZLE   45  43  93 NE7       29.59S
BELLEVILLE     DRIZZLE   45  45 100 NW2       29.57F FOG
CAHOKIA*       CLOUDY    47  44  90 W8        29.58F FOG
SPARTA*        DRIZZLE   42  41  95 CALM      29.59F
$$

ILZ064>066-069>071-074>076-080>082-084>086-088>090-092>094-251900-
SOUTH-CENTRAL ILLINOIS

CITY           SKY/WX    TMP DP  RH WIND       PRES   REMARKS
CARBONDALE     LGT RAIN  43  41  93 SW7       29.59F FOG
6HR MIN TEMP:  40; 6HR MAX TEMP:  43; 6HR PCP:  0.14;

CAIRO*         RAIN      43  42  95 SW8G16    29.63F
EFFINGHAM*     CLOUDY    41  38  89 CALM      29.61F
MARION         RAIN      43  41  93 S8        29.60F
MT. VERNON     CLOUDY    43  37  81 S6        29.59F
CENTRALIA*     LGT RAIN  42  38  88 S5        29.58F
SALEM*         CLOUDY    45  40  85 S3        29.58F
METROPOLIS*    RAIN      42  42 100 S8        29.62F
$$

ILZ067-068-072-073-078-083-087-091-251900-
SOUTHEAST ILLINOIS

CITY           SKY/WX    TMP DP  RH WIND       PRES   REMARKS
LAWRENCEVILLE  CLOUDY    40  38  93 SE7       29.61F
FLORA*         RAIN      41  40  97 S5        29.59F
FAIRFIELD*     RAIN      42  40  94 S5        29.59F
HARRISBURG*    LGT RAIN  42  42  99 SW7       29.61F
ROBINSON*      DRIZZLE   39  38  97 CALM      29.63F
CARMI*         LGT RAIN  43  43 100 S6        29.61R
$$

ABBREVIATIONS USED IN REMARKS
   TC - TEMPERATURE IN CELSIUS
  WCI - WIND CHILL INDEX
   HX - HEAT INDEX
  VSB - VISIBILITY
$$




USA.gov is the U.S. government's official web portal to all federal, state and local government web resources and services.